Parsons, KS

5:35 PM CDT on June 15, 2019 (GMT -0500)
Tri-City

Weather History for KPPF - May, 2019

Change the Weather History Date:

Sunday, May 19, 2019

  Actual Average Record
Temperature  
Mean Temperature 63 °F -  
Max Temperature 73 °F 78 °F 91 °F (2006)
Min Temperature 53 °F 57 °F 42 °F (1968)
Degree Days  
Heating Degree Days 2    
Growing Degree Days 13 (Base 50)    
Moisture  
Dew Point 55 °F    
Average Humidity 79    
Maximum Humidity 97    
Minimum Humidity 49    
Precipitation  
Precipitation 0.18 in - - ()
Sea Level Pressure  
Sea Level Pressure 29.82 in    
Wind  
Wind Speed 11 mph (WNW)    
Max Wind Speed 31 mph    
Max Gust Speed 46 mph    
Visibility 10 miles    
Events Rain , Thunderstorm    
Averages and records for this station are not official NWS values.
T = Trace of Precipitation, MM = Missing Value Source: NWS Daily Summary

Daily Weather History Graph

Daily Weather History Graph

Search for Another Location

Airport or City:

Astronomy

May. 19, 2019 Rise Set
Actual Time 6:10 AM CDT 8:27 PM CDT
Civil Twilight 5:40 AM CDT 8:56 PM CDT
Nautical Twilight 5:04 AM CDT 9:33 PM CDT
Astronomical Twilight 4:25 AM CDT 10:12 PM CDT
Moon 9:28 PM CDT (5/19) 6:55 AM CDT (5/19)
Length of Visible Light 15h 15m
Length of Day
14h 16m
Full, 99% of the Moon is Illuminated
May 19
Full
May 26
Last Quarter
Jun 3
New
Jun 10
First Quarter
Jun 17
Full

Hourly Weather History & Observations

Time (CDT) Temp. Dew Point Humidity Pressure Visibility Wind Dir Wind Speed Gust Speed Precip Events Conditions
12:09 AM 63.0 °F 62.1 °F 97% 29.67 in 9.0 mi SW 9.2 mph - 0.01 in Rain Light Rain
12:19 AM 63.0 °F 62.1 °F 97% 29.68 in 10.0 mi SW 11.5 mph - 0.01 in Rain , Thunderstorm Light Rain
12:24 AM 63.0 °F 62.1 °F 97% 29.68 in 10.0 mi SW 10.4 mph - 0.01 in Rain , Thunderstorm Light Thunderstorms and Rain
12:39 AM 60.1 °F 57.0 °F 90% 29.73 in 5.0 mi West 24.2 mph 46.0 mph 0.11 in Rain , Thunderstorm Thunderstorms and Rain
12:48 AM 59.0 °F 55.4 °F 88% 29.73 in 6.0 mi West 31.1 mph 46.0 mph 0.13 in Rain , Thunderstorm Rain
12:52 AM 59.0 °F 54.0 °F 83% 29.72 in 6.0 mi West 20.7 mph 46.0 mph 0.15 in Rain , Thunderstorm Rain
1:10 AM 57.9 °F 54.0 °F 87% 29.69 in 10.0 mi NNW 10.4 mph 31.1 mph 0.02 in Rain Light Rain
1:52 AM 57.0 °F 55.0 °F 93% 29.62 in 10.0 mi Calm Calm - 0.03 in   Clear
2:52 AM 54.0 °F 53.1 °F 97% 29.65 in 10.0 mi WNW 5.8 mph - N/A   Clear
3:52 AM 54.0 °F 53.1 °F 97% 29.68 in 10.0 mi West 5.8 mph - N/A   Clear
4:52 AM 54.0 °F 53.1 °F 97% 29.71 in 10.0 mi South 3.5 mph - N/A   Clear
5:52 AM 53.1 °F 52.0 °F 96% 29.72 in 10.0 mi South 5.8 mph - N/A   Clear
6:52 AM 53.1 °F 52.0 °F 96% 29.75 in 10.0 mi SW 4.6 mph - N/A   Clear
7:40 AM 57.0 °F 54.0 °F 89% 29.80 in 10.0 mi WNW 11.5 mph 19.6 mph N/A   Mostly Cloudy
7:50 AM 57.2 °F 55.4 °F 94% 29.80 in 10.0 mi NW 11.5 mph 19.6 mph N/A   Scattered Clouds
7:52 AM 59.0 °F 55.0 °F 87% 29.79 in 10.0 mi NW 10.4 mph 19.6 mph N/A   Scattered Clouds
8:52 AM 62.1 °F 55.0 °F 78% 29.83 in 10.0 mi NW 12.7 mph - N/A   Clear
9:52 AM 64.0 °F 52.0 °F 65% 29.85 in 10.0 mi NNW 17.3 mph 27.6 mph N/A   Clear
10:52 AM 66.0 °F 54.0 °F 65% 29.89 in 10.0 mi NW 15.0 mph - N/A   Partly Cloudy
11:52 AM 68.0 °F 54.0 °F 61% 29.90 in 10.0 mi NW 12.7 mph 21.9 mph N/A   Partly Cloudy
12:52 PM 70.0 °F 55.0 °F 59% 29.91 in 10.0 mi North 8.1 mph - N/A   Clear
1:52 PM 71.1 °F 54.0 °F 55% 29.93 in 10.0 mi WNW 8.1 mph - N/A   Clear
2:52 PM 71.1 °F 53.1 °F 53% 29.94 in 10.0 mi WNW 9.2 mph - N/A   Clear
3:52 PM 73.0 °F 53.1 °F 49% 29.95 in 10.0 mi West 11.5 mph - N/A   Clear
4:52 PM 73.0 °F 54.0 °F 51% 29.94 in 10.0 mi WNW 9.2 mph - N/A   Clear
5:52 PM 72.0 °F 53.1 °F 51% 29.94 in 10.0 mi WNW 8.1 mph - N/A   Partly Cloudy
6:52 PM 72.0 °F 53.1 °F 51% 29.94 in 10.0 mi NNW 6.9 mph - N/A   Clear
7:52 PM 68.0 °F 54.0 °F 61% 29.94 in 10.0 mi NNE 3.5 mph - N/A   Clear
8:52 PM 62.1 °F 55.9 °F 80% 29.95 in 10.0 mi NE 3.5 mph - N/A   Clear
9:52 PM 60.1 °F 55.0 °F 83% 29.96 in 10.0 mi Calm Calm - N/A   Clear
10:52 PM 57.9 °F 54.0 °F 87% 29.99 in 10.0 mi NNE 3.5 mph - N/A   Clear
11:52 PM 57.0 °F 53.1 °F 87% 29.99 in 10.0 mi Calm Calm - N/A   Clear